Regional Weather Roundup
Issued by NWS San Diego, CA

Current Version | Previous Version | Text Only | Print | Product List | Glossary On
Versions: 1 2 3 4 5 6 7 8 9 10 11 12 13 14 15 16 17 18 19 20 21 22 23 24 25 26 27 28 29 30 31 32 33 34 35 36 37 38 39 40 41 42 43 44 45 46 47 48 49 50
277
ASUS46 KSGX 040111
RWRSGX

SAN DIEGO HOURLY WEATHER ROUNDUP
NATIONAL WEATHER SERVICE SAN DIEGO CA
500 PM PST SAT DEC 03 2016

NOTE: "FAIR" INDICATES FEW OR NO CLOUDS BELOW 12,000 FEET WITH NO
SIGNIFICANT WEATHER AND/OR OBSTRUCTIONS TO VISIBILITY.

CAZ042-043-060-061-PZZ750-775-040200-

GREATER SAN DIEGO AREA

CITY           SKY/WX    TMP DP  RH WIND       PRES   REMARKS
SAN DIEGO AP   CLEAR     62  32  32 N3        30.05S
NATIONAL CITY    N/A     62  36  38 CALM      30.05R
CHULA VISTA      N/A     62  39  43 NW1       29.96S
IMPERIAL BEACH CLEAR     61  41  47 NW6       30.05
BROWN FIELD    CLEAR     58  38  47 W3        30.04R
MIRAMAR MCAS   CLEAR     61  36  39 NW6       30.04R
MONTGOMERY FLD CLEAR     59  33  37 NW7       30.04R

$$

NORTH SAN DIEGO COUNTY

CITY           SKY/WX    TMP DP  RH WIND       PRES   REMARKS
CAMP PENDLETON CLEAR     61  25  25 CALM      30.03S
OCEANSIDE AP   CLEAR     61  40  45 NW7       30.03R
OCEANSIDE HBR    N/A     60  49  67 W3        30.06R
VISTA            N/A     61  28  29 CALM      30.02S
CARLSBAD       CLEAR     59  40  49 VRB5      30.03S
DEL MAR          N/A     59  45  60 CALM      30.07R
LA JOLLA SCRIP   N/A     59  48  66 NW2       30.04S
FALLBROOK        N/A     61  31  32 CALM      30.03S
ESCONDIDO        N/A     60  28  29 W6        30.06R
SAN MARCOS       N/A     61  30  31 CALM      30.07S
POWAY            N/A     58  34  40 CALM      30.07R

$$

EAST SAN DIEGO COUNTY

CITY           SKY/WX    TMP DP  RH WIND       PRES   REMARKS
RAMONA         CLEAR     51  28  41 CALM      30.04R
SANTEE LAKES     N/A     61  32  34 CALM      30.03S
LA MESA          N/A     59  31  35 NW3       29.98S
JAMUL            N/A     56  37  48 CALM      30.05S
DESCANSO N       N/A     49  25  39 W2        30.03S
CAMPO            N/A     55   2  11 E13       30.00S

$$

ORANGE COUNTY AND THE LOS ANGELES BASIN

CITY           SKY/WX    TMP DP  RH WIND       PRES   REMARKS
JOHN WAYNE AP  PTCLDY    60  42  51 SW6       30.05R
LAGUNA BEACH     N/A     60  39  45 CALM      30.00S
LAKE FOREST FR   N/A     59  26  28 CALM      29.94S
HUNTINGTON BCH   N/A     60  45  58 W1        30.06S
LOS ALAMITOS   FAIR      60  38  42 CALM      30.04S
FULLERTON      CLEAR     65  40  39 W3        30.03S
LONG BEACH     CLEAR     63  18  17 NW6       30.05R
L.A. AP        CLEAR     62  35  36 CALM      30.04F
L.A. DOWNTOWN  CLEAR     61  19  19 W3        30.04S

$$

THE INLAND EMPIRE

CITY           SKY/WX    TMP DP  RH WIND       PRES   REMARKS
CORONA         CLEAR     58  23  26 CALM      30.04F
CHINO          PTCLDY    61  29  29 N6        30.05S
ONTARIO        CLEAR     57  14  18 N5        30.04F
SAN BERNARDINO FAIR      65  15  14 CALM      30.04S
RIVERSIDE AP   CLEAR     69  16  13 N15G24    30.02S
MORENO VALLEY    N/A     61  28  28 CALM      28.15S
MARCH ARB      CLEAR     57  18  21 CALM      30.04R
PERRIS           N/A     61  21  21 CALM      30.05S
HEMET EAST       N/A     58  16  18 CALM      30.13S
FRENCH VALLEY  NOT AVBL
TEMECULA         N/A     64  26  23 CALM      30.07R

$$

SAN BERNARDINO AND RIVERSIDE COUNTY MOUNTAINS

CITY           SKY/WX    TMP DP  RH WIND       PRES   REMARKS
BIG BEAR AP    PTCLDY    41  14  33 NE13      30.22R
PINE COVE        N/A     48  11  22 S3        30.17F

$$

SOUTHERN DESERT INCLUDING THE COACHELLA VALLEY

CITY           SKY/WX    TMP DP  RH WIND       PRES   REMARKS
PALM SPRINGS   PTCLDY    67   6   9 S10       30.04S
PALM DESERT      N/A     70  13  11 CALM        N/A
THERMAL        PTCLDY    62   8  12 NW6       30.01R
BLYTHE         CLEAR     63   1   8 N15       30.01F
IMPERIAL AP    CLEAR     63  17  17 NW8       30.00S
EL CENTRO NAS  CLEAR     61   5  10 NW7       30.03S
YUMA AZ        CLEAR     64  11  12 NW5       29.99S
MEXICALI       CLEAR     63  10  13 W7        30.01S

$$

UPPER DESERT

CITY           SKY/WX    TMP DP  RH WIND       PRES   REMARKS
VICTORVILLE AP CLEAR     52   1  12 CALM      30.17R
HESPERIA         N/A     52   7  16 N5        30.34S
PALMDALE       CLEAR     52   5  15 N12       30.16S
LANCASTER      CLEAR     50   3  14 N9        30.17R
EDWARDS AFB    PTCLDY    51   4  14 N5        30.15S
DAGGETT        CLEAR     53   5  14 W7        30.16R
29 PALMS N     CLEAR     55   4  12 VRB5      30.20R
NEEDLES        CLEAR     60   6  11 N17       30.08R

$$

REGIONAL REPORTS

CITY           SKY/WX    TMP DP  RH WIND       PRES   REMARKS
SANTA BARBARA  CLEAR     56  42  59 W5        30.07S
LAS VEGAS NV   CLEAR     55   6  14 S5        30.13F
PHOENIX AZ     CLEAR     63  28  26 SW7       29.91R
TIJUANA        CLEAR     55  34  44 W6        30.07R
ENSENADA NW      N/A     62  32  32 NW18      29.97S

$$

OFFSHORE ISLANDS

CITY           SKY/WX    TMP DP  RH WIND       PRES   REMARKS
CATALINA ARPT  CLEAR     58   6  12 W9        30.07F
SAN NICOLAS IS CLEAR     53  49  86 NW14      30.07F

$$

MARINE AND OFFSHORE BUOY REPORTS

STATION/POSITION SKY/WX   TEMP    WIND        PRES    SWELL
                          AIR SEA DIR/SP/G            HT/PER/DIR
                          (F)     (DEG/KT/KT) (MB)    (FT/S/D)
TANNER BANKS               58 62  320/ 14/ 16 1018.4F   8/310/19
S CLEMENTE BASIN           61 61  300/  8/ 10 1017.3F   5/280/21
SAN NICOLAS IS.               59                N/A     7/290/20
SO. S. ROSA ISLA           58 59  320/ 12/ 16 1018.9    7/300/19
W. S. BARBARA CH           58 58  330/ 23/ 27 1018.1F   7/280/19
M. S. BARBARA CH                  270/  6/  8 1018.9F
S. MONICA BASIN            60 60  280/ 16/ 19 1017.3F   3/270/11
S PEDRO CHANNEL               62                N/A     2/270/20
CMP PENDLETON NS              62                N/A     2/220/15
OCEANSIDE OFFSHR              62                N/A     2/190/15
TORREY PINES OTR              62                N/A     2/280/11
POINT LOMA SOUTH              61                N/A     3/260/20

$$





USA.gov is the U.S. government's official web portal to all federal, state and local government web resources and services.